Regional Weather Roundup
Issued by NWS Jackson, KY

Home | Current Version | Previous Version | Text Only | Print | Product List | Glossary On
Versions: 1 2 3 4 5 6 7 8 9 10 11 12 13 14 15 16 17 18 19 20 21 22 23 24 25 26 27
000
ASUS43 KJKL 280110
RWRJKL

EAST KENTUCKY HOURLY WEATHER ROUNDUP
NATIONAL WEATHER SERVICE JACKSON KY
900 PM EDT WED JUL 27 2016

NOTE: "FAIR" INDICATES FEW OR NO CLOUDS BELOW 12,000 FEET WITH
NO SIGNIFICANT WEATHER AND/OR OBSTRUCTIONS TO VISIBILITY.

* THESE REPORTS ARE NOT UNDER NWS QUALITY CONTROL AND MAY NOT
  REPORT WEATHER SUCH AS PRECIPITATION AND FOG.

KYZ079-080-083-085-087-088-110-112-115-119-120-280200
...EASTERN KENTUCKY...

CITY           SKY/WX    TMP DP  RH WIND       PRES   REMARKS
JACKSON        CLOUDY    73  70  90 CALM      30.00R
LONDON         CLOUDY    79  66  64 E3        29.97R THUNDER
SOMERSET*      CLOUDY    77  68  73 N6        29.97S THUNDER
MONTICELLO*    MOCLDY   N/A N/A N/A W10       29.96S
WILLIAMSBURG*  PTCLDY    79  73  83 CALM      29.97R
MIDDLESBORO*   MOCLDY    80  73  80 E3        29.99R
HARLAN APT*    MOCLDY    79  70  73 CALM      30.00R
PIKE CO APT*     N/A     73  73 100 N3        30.00S THUNDER
BIG SANDY APT* DRIZZLE   75  75  99 CALM      29.99R
MOREHEAD APT*  CLOUDY    79  73  83 CALM      29.99R
ASHLAND*       CLOUDY    79  72  78 SE6       29.93S
$$

KYZ035-036-041-042-044-050-067-078-099-280200
...CENTRAL KENTUCKY...

CITY           SKY/WX    TMP DP  RH WIND       PRES   REMARKS
MT STERLING*   MOCLDY    82  75  78 SE6       29.97R
FLEMING/MASON* MOCLDY    78  73  84 SE3       29.96S
DANVILLE*      LGT RAIN  79  73  83 SW6       29.98R
LEXINGTON      CLEAR     83  73  72 S3        29.95R
FRANKFORT      CLOUDY    80  74  81 CALM      29.93R
LOUISVILLE     CLOUDY    80  73  79 CALM      29.90S
LEBANON*         N/A     77  75  94 CALM      29.95R
GLASGOW*       CLOUDY    79  72  78 CALM      29.95R
BOWLING GREEN  CLOUDY    79  74  84 CALM      29.94R
$$

KYZ091>093-OHZ055-061-077-WVZ005-015-034-035-042-280200
...SOUTHERN OHIO/WEST VIRGINIA...

CITY           SKY/WX    TMP DP  RH WIND       PRES   REMARKS
COVINGTON      MOCLDY    81  73  76 W3        29.92F
COLUMBUS       MOCLDY    84  66  54 NE6       29.92S
DAYTON         MOCLDY    80  66  62 W5        29.94S
WILMINGTON     CLOUDY    80  74  81 CALM      29.93S
HUNTINGTON     LGT RAIN  74  70  87 SW7       29.94F
CHARLESTON     MOCLDY    82  74  76 CALM      29.97R
PINEVILLE*       N/A     73  70  89 MISG      30.09R FOG
BECKLEY          N/A     71  69  93 CALM      30.09R
BLUEFIELD        N/A     73  70  90 NE3       30.11R
LOGAN CO APT*  DRIZZLE   75  73  94 CALM      30.01F
$$

VAZ002-007-008-TNZ017-027-036-066-071-280200
...SOUTHWEST VIRGINIA/EAST TENNESSEE...

CITY           SKY/WX    TMP DP  RH WIND       PRES   REMARKS
WISE*            N/A     72  70  94 CALM      30.09R
JONESVILLE*      N/A    N/A N/A N/A MISG        N/A
ABINGDON*        N/A     76  66  70 E6        30.03R
BRISTOL        MOCLDY    77  71  82 CALM      29.98R
MORRISTOWN*    PTCLDY    88  72  58 W9        29.96R HX  94
SEVIERVILLE*   CLEAR     84  68  58 W6        29.94R
KNOXVILLE      MOCLDY    86  71  60 S10       29.93F HX  91
OAK RIDGE      MOCLDY    88  70  55 SW6       29.95S HX  93
CROSSVILLE     PTCLDY    79  73  82 SW3       30.02R
NASHVILLE      MOCLDY    86  71  60 S5        29.92S HX  91
$$

...KEY TO REMARKS...
VSB - VISIBILITY IN MILES
WCI - WIND CHILL INDEX
HX  - HEAT INDEX

$$




USA.gov is the U.S. government's official web portal to all federal, state and local government web resources and services.